Kecskemet, Hungary

9:43 AM CET on December 13, 2017 (GMT +0100)
Kecskemet

Weather History for LHKE - October, 2013

Change the Weather History Date:

Wednesday, October 30, 2013

  Actual Average (LHBP) Record (LHBP)
Temperature  
Mean Temperature 55 °F -  
Max Temperature 66 °F 54 °F 68 °F (2004)
Min Temperature 44 °F 36 °F 14 °F (1997)
Degree Days  
Heating Degree Days 10    
Growing Degree Days 5 (Base 50)    
Moisture  
Dew Point 45 °F    
Average Humidity 71    
Maximum Humidity 94    
Minimum Humidity 48    
Precipitation  
Precipitation 0.00 in - - ()
Sea Level Pressure  
Sea Level Pressure 30.14 in    
Wind  
Wind Speed 6 mph ()    
Max Wind Speed 13 mph    
Max Gust Speed -    
Visibility 6.0 miles    
Events      
Averages and records for this station are not official NWS values.
T = Trace of Precipitation, MM = Missing Value Source: Averaged Metar Reports

Daily Weather History Graph

Daily Weather History Graph

Search for Another Location

Airport or City:

Trip Planner

Search our weather history database for the weather conditions in past years. The results will help you decide how hot, cold, wet, or windy it might be!

Date:

Astronomy

Oct. 30, 2013 Rise Set
Actual Time 6:20 AM CET 4:28 PM CET
Civil Twilight 5:48 AM CET 4:59 PM CET
Nautical Twilight 5:13 AM CET 5:35 PM CET
Astronomical Twilight 4:37 AM CET 6:10 PM CET
Moon 1:35 AM CET (10/30) 2:17 PM CET (10/30)
Length of Visible Light 11h 10m
Length of Day
10h 07m
Waning Crescent, 19% of the Moon is Illuminated
Oct 30
Waning Crescent
Nov 3
New
Nov 10
First Quarter
Nov 17
Full
Nov 25
Last Quarter

Hourly Weather History & Observations

Time (CET) Temp. Windchill Dew Point Humidity Pressure Visibility Wind Dir Wind Speed Gust Speed Precip Events Conditions
12:15 AM 51.8 °F - 46.4 °F 82% 30.04 in - NW 4.5 mph - N/A   Clear
12:45 AM 50.0 °F - 44.6 °F 82% 30.04 in - NW 4.5 mph - N/A   Clear
1:15 AM 50.0 °F - 46.4 °F 87% 30.06 in - NW 2.2 mph - N/A   Clear
1:45 AM 50.0 °F - 46.4 °F 87% 30.06 in - WNW 4.5 mph - N/A   Clear
2:15 AM 50.0 °F - 46.4 °F 87% 30.06 in - NNW 2.2 mph - N/A   Clear
2:45 AM 48.2 °F - 44.6 °F 87% 30.06 in - WNW 4.5 mph - N/A   Clear
3:15 AM 48.2 °F - 44.6 °F 87% 30.06 in - West 2.2 mph - N/A   Clear
3:45 AM 46.4 °F 43.0 °F 44.6 °F 93% 30.06 in 5.0 mi WNW 6.7 mph - N/A   Unknown
4:15 AM 50.0 °F - 48.2 °F 94% 30.09 in 5.6 mi WNW 8.9 mph - N/A   Unknown
4:45 AM 48.2 °F - 46.4 °F 93% 30.06 in 5.6 mi WNW 6.7 mph - N/A   Unknown
5:15 AM 48.2 °F - 46.4 °F 93% 30.06 in 5.6 mi WNW 8.9 mph - N/A   Unknown
5:45 AM - - - N/A% - - NW 6.7 mph - N/A   Clear
6:15 AM 48.2 °F - 46.4 °F 93% 30.09 in - NW 8.9 mph - N/A   Clear
6:45 AM 48.2 °F - 44.6 °F 87% 30.09 in - NW 6.7 mph - N/A   Clear
7:15 AM 51.8 °F - 46.4 °F 82% 30.09 in - NNW 6.7 mph - N/A   Clear
7:45 AM 53.6 °F - 46.4 °F 77% 30.09 in - North 4.5 mph - N/A   Clear
8:15 AM 55.4 °F - 48.2 °F 77% 30.12 in - NNW 4.5 mph - N/A   Clear
8:45 AM - - - N/A% - - NW 8.9 mph - N/A   Clear
9:15 AM 57.2 °F - 48.2 °F 72% 30.12 in - NW 6.7 mph - N/A   Clear
9:45 AM 59.0 °F - 48.2 °F 67% 30.12 in - NNW 6.7 mph - N/A   Clear
10:15 AM 60.8 °F - 48.2 °F 63% 30.15 in - North 8.9 mph - N/A   Clear
10:45 AM 62.6 °F - 48.2 °F 59% 30.15 in - NNW 6.7 mph - N/A   Clear
11:15 AM 66.2 °F - 48.2 °F 52% 30.12 in - NNW 6.7 mph - N/A   Clear
11:45 AM - - - N/A% - 6.2 mi NNW 8.9 mph - N/A   Clear
12:15 PM 66.2 °F - 50.0 °F 56% 30.12 in - WNW 13.4 mph - N/A   Clear
12:45 PM 66.2 °F - 48.2 °F 52% 30.12 in - WNW 11.2 mph - N/A   Clear
1:15 PM 66.2 °F - 50.0 °F 56% 30.12 in - NW 13.4 mph - N/A   Clear
1:45 PM 66.2 °F - 48.2 °F 52% 30.12 in - NW 13.4 mph - N/A   Clear
2:15 PM 64.4 °F - 48.2 °F 56% 30.15 in 6.2 mi NNW 13.4 mph - N/A   Scattered Clouds
2:45 PM - - - N/A% - 6.2 mi NNW 13.4 mph - N/A   Clear
3:15 PM 62.6 °F - 44.6 °F 52% 30.15 in - NNW 11.2 mph - N/A   Clear
3:45 PM 60.8 °F - 41.0 °F 48% 30.18 in 6.2 mi North 11.2 mph - N/A   Mostly Cloudy
4:15 PM 60.8 °F - 42.8 °F 52% 30.18 in - NNW 11.2 mph - N/A   Clear
4:45 PM 59.0 °F - 41.0 °F 51% 30.18 in - NNW 8.9 mph - N/A   Clear
5:15 PM 57.2 °F - 41.0 °F 55% 30.21 in - NNW 6.7 mph - N/A   Clear
5:45 PM - - - N/A% - 6.2 mi NNW 6.7 mph - N/A   Clear
6:15 PM 53.6 °F - 41.0 °F 62% 30.21 in - NNW 6.7 mph - N/A   Clear
6:45 PM 53.6 °F - 41.0 °F 62% 30.24 in - NNW 6.7 mph - N/A   Clear
7:15 PM 53.6 °F - 41.0 °F 62% 30.24 in - North 4.5 mph - N/A   Clear
7:45 PM 53.6 °F - 41.0 °F 62% 30.24 in 6.2 mi North 4.5 mph - N/A   Scattered Clouds
8:15 PM 53.6 °F - 41.0 °F 62% 30.24 in 6.2 mi North 4.5 mph - N/A   Scattered Clouds
8:45 PM - - - N/A% - 6.2 mi NNW 6.7 mph - N/A   Clear
9:15 PM 48.2 °F - 41.0 °F 76% 30.27 in - NNW 6.7 mph - N/A   Clear
9:45 PM 46.4 °F 43.0 °F 39.2 °F 76% 30.27 in - NW 6.7 mph - N/A   Clear
10:15 PM 46.4 °F 43.0 °F 39.2 °F 76% 30.27 in - NW 6.7 mph - N/A   Clear
10:45 PM 44.6 °F 40.8 °F 39.2 °F 81% 30.30 in - NW 6.7 mph - N/A   Clear
11:15 PM 44.6 °F 40.8 °F 39.2 °F 81% 30.30 in - NW 6.7 mph - N/A   Clear
11:45 PM - - - N/A% - - NNW 6.7 mph - N/A   Clear